User: anonymous
Location: Brno
(49.2000°N, 16.6330°E)
Time: 03:51:25
(UTC+02:00)
Language:

Iridium 2 - Orbit

View from above orbital plane
View from above orbital plane
View from above satellite
View from above satellite

Ground track
Ground track

The orbit data is extracted from the following two-line orbital elements,

1 25527U 98066A   14244.33326546  .00003284  00000-0  21033-3 0  3428
2 25527 085.5287 271.4577 0008887 205.8119 282.0371 15.08158227863603
Epoch (UTC): 01 September 2014 07:59:54
Eccentricity: 0.0008887
inclination: 85.5287°
perigee height: 535 km
apogee height: 548 km
right ascension of ascending node: 271.4577°
argument of perigee: 205.8119°
revolutions per day: 15.08158227
mean anomaly at epoch: 282.0371°
orbit number at epoch: 86360

The dashed part of the orbit path shows where the satellite is in the earth's shadow,  

DLR